K0FJ-1 Weather Reports


Display with metric or nautical units.
time (UTC)temp
F
wind
direction
speed
MPH
gust
MPH
rain 1hr
in
rain 24hr
in
rain mn
in
humidity
%
barometer
mb
20260505031004 61 66 2.0 9.0 0.00 0.00 0.00 42 1008.0
20260505030503 62 61 2.0 9.0 0.00 0.00 0.00 41 1008.1
20260505030003 62 52 2.0 7.0 0.00 0.00 0.00 41 1007.6
20260505025504 62 57 2.0 7.0 0.00 0.00 0.00 41 1007.5
20260505025003 62 64 2.0 8.0 0.00 0.00 0.00 40 1007.4
20260505024503 62 71 2.0 8.0 0.00 0.00 0.00 40 1007.3
20260505024005 62 59 2.0 4.0 0.00 0.00 0.00 40 1007.2
20260505023503 63 58 2.0 8.0 0.00 0.00 0.00 39 1007.0
20260505023005 63 64 2.0 9.0 0.00 0.00 0.00 39 1006.9
20260505022505 63 59 3.0 9.0 0.00 0.00 0.00 39 1006.8
20260505022003 64 56 3.0 9.0 0.00 0.00 0.00 38 1006.6
20260505021503 64 54 3.0 10.0 0.00 0.00 0.00 38 1006.5
20260505021003 64 58 3.0 10.0 0.00 0.00 0.00 38 1006.3
20260505020505 64 63 3.0 7.0 0.00 0.00 0.00 39 1006.3
20260505020003 65 57 3.0 7.0 0.00 0.00 0.00 39 1006.1
20260505015503 65 49 2.0 8.0 0.00 0.00 0.00 39 1005.9
20260505015003 65 56 2.0 8.0 0.00 0.00 0.00 39 1005.9
20260505014503 66 59 2.0 7.0 0.00 0.00 0.00 38 1005.8
20260505014003 66 58 3.0 11.0 0.00 0.00 0.00 38 1005.6
20260505013503 66 54 3.0 11.0 0.00 0.00 0.00 38 1005.6
20260505013003 67 48 3.0 10.0 0.00 0.00 0.00 38 1005.4
20260505012505 68 54 3.0 10.0 0.00 0.00 0.00 37 1005.2
20260505012003 68 64 2.0 5.0 0.00 0.00 0.00 38 1005.2
20260505011503 68 73 2.0 7.0 0.00 0.00 0.00 38 1004.9
20260505011003 69 68 3.0 7.0 0.00 0.00 0.00 38 1005.1
20260505010503 69 63 3.0 7.0 0.00 0.00 0.00 38 1005.0
20260505010004 69 65 2.0 6.0 0.00 0.00 0.00 37 1004.9
20260505005503 70 55 2.0 6.0 0.00 0.00 0.00 37 1004.7
20260505005004 70 45 2.0 9.0 0.00 0.00 0.00 37 1004.7
20260505004503 70 51 2.0 9.0 0.00 0.00 0.00 36 1004.7
20260505004003 71 41 3.0 9.0 0.00 0.00 0.00 36 1004.6
20260505003503 71 41 3.0 9.0 0.00 0.00 0.00 36 1004.7
20260505003003 72 46 2.0 8.0 0.00 0.00 0.00 34 1004.8
20260505002504 72 58 2.0 8.0 0.00 0.00 0.00 34 1004.9
20260505002003 73 91 2.0 6.0 0.00 0.00 0.00 33 1004.7
20260505001503 73 91 2.0 6.0 0.00 0.00 0.00 31 1004.6
20260505001003 74 88 2.0 7.0 0.00 0.00 0.00 31 1004.2
20260505000503 74 87 3.0 7.0 0.00 0.00 0.00 31 1003.9
20260505000003 76 81 2.0 9.0 0.00 0.00 0.00 29 1003.7
20260504235503 77 80 2.0 9.0 0.00 0.00 0.00 26 1003.8
20260504235003 78 79 1.0 4.0 0.00 0.00 0.00 23 1003.7
20260504234504 79 86 1.0 3.0 0.00 0.00 0.00 22 1003.2
20260504234003 79 112 1.0 3.0 0.00 0.00 0.00 21 1003.1
20260504233503 80 124 1.0 2.0 0.00 0.00 0.00 21 1003.0
20260504233005 80 124 1.0 2.0 0.00 0.00 0.00 21 1002.9
20260504232503 80 124 1.0 2.0 0.00 0.00 0.00 21 1002.9
20260504232003 81 123 0.0 2.0 0.00 0.00 0.00 20 1002.9
20260504231503 81 134 0.0 2.0 0.00 0.00 0.00 19 1002.8
20260504231003 81 132 1.0 2.0 0.00 0.00 0.00 19 1002.7
20260504230505 81 67 1.0 3.0 0.00 0.00 0.00 19 1002.7
20260504230003 81 46 1.0 3.0 0.00 0.00 0.00 22 1002.7
20260504225503 81 46 1.0 2.0 0.00 0.00 0.00 21 1002.7
20260504225003 81 41 1.0 2.0 0.00 0.00 0.00 20 1002.7
20260504224503 81 76 1.0 3.0 0.00 0.00 0.00 18 1002.7
20260504224003 81 157 1.0 4.0 0.00 0.00 0.00 18 1002.8
20260504223504 81 189 2.0 6.0 0.00 0.00 0.00 18 1002.9
20260504223003 81 188 3.0 6.0 0.00 0.00 0.00 18 1003.0
20260504222503 80 162 3.0 6.0 0.00 0.00 0.00 18 1003.2
20260504222003 80 113 2.0 6.0 0.00 0.00 0.00 19 1003.3
20260504221503 80 109 2.0 3.0 0.00 0.00 0.00 20 1003.3
20260504221003 80 105 2.0 4.0 0.00 0.00 0.00 22 1003.3
20260504220503 79 115 2.0 6.0 0.00 0.00 0.00 20 1003.4
20260504220003 79 133 2.0 7.0 0.00 0.00 0.00 20 1003.5
20260504215505 79 134 2.0 7.0 0.00 0.00 0.00 21 1003.5
20260504215003 79 117 2.0 14.0 0.00 0.00 0.00 20 1003.4
20260504214503 79 109 2.0 14.0 0.00 0.00 0.00 21 1003.6
20260504214003 79 140 3.0 15.0 0.00 0.00 0.00 22 1003.6
20260504213503 79 170 7.0 19.0 0.00 0.00 0.00 20 1003.7
20260504213003 80 176 10.0 23.0 0.00 0.00 0.00 20 1003.3
20260504212505 80 176 10.0 23.0 0.00 0.00 0.00 20 1003.3
20260504212003 81 175 6.0 23.0 0.00 0.00 0.00 19 1003.1
20260504211503 82 173 4.0 11.0 0.00 0.00 0.00 18 1003.4
20260504211004 83 174 3.0 11.0 0.00 0.00 0.00 17 1003.5
20260504210503 83 200 2.0 5.0 0.00 0.00 0.00 17 1003.5
20260504210004 83 220 2.0 5.0 0.00 0.00 0.00 15 1003.5
20260504205503 84 227 2.0 6.0 0.00 0.00 0.00 16 1003.4
20260504205003 84 240 2.0 6.0 0.00 0.00 0.00 16 1003.5
20260504204505 84 333 2.0 6.0 0.00 0.00 0.00 16 1003.5
20260504204003 84 291 4.0 13.0 0.00 0.00 0.00 17 1003.5
20260504203503 84 217 5.0 13.0 0.00 0.00 0.00 16 1003.5
20260504203003 84 190 3.0 8.0 0.00 0.00 0.00 16 1003.7
20260504202503 84 205 2.0 8.0 0.00 0.00 0.00 16 1003.6
20260504202003 84 231 2.0 7.0 0.00 0.00 0.00 16 1003.7
20260504201503 84 259 2.0 7.0 0.00 0.00 0.00 17 1003.9
20260504201003 84 336 2.0 5.0 0.00 0.00 0.00 16 1003.9
20260504200503 85 347 1.0 5.0 0.00 0.00 0.00 17 1003.9
20260504200004 86 328 1.0 5.0 0.00 0.00 0.00 18 1004.0
20260504195503 85 116 0.0 3.0 0.00 0.00 0.00 20 1004.0
20260504195003 84 104 1.0 4.0 0.00 0.00 0.00 20 1004.1
20260504194503 83 57 1.0 6.0 0.00 0.00 0.00 18 1004.2
20260504194005 83 356 2.0 6.0 0.00 0.00 0.00 18 1004.3
20260504193503 83 360 2.0 6.0 0.00 0.00 0.00 17 1004.4
20260504193003 84 353 1.0 4.0 0.00 0.00 0.00 18 1004.4
20260504192503 84 196 1.0 4.0 0.00 0.00 0.00 20 1004.6
20260504192005 83 198 3.0 6.0 0.00 0.00 0.00 18 1004.7
20260504191503 83 189 4.0 7.0 0.00 0.00 0.00 19 1004.8
20260504191003 83 183 3.0 7.0 0.00 0.00 0.00 18 1004.9
20260504190504 82 32 2.0 6.0 0.00 0.00 0.00 20 1005.0
20260504190003 82 5 1.0 4.0 0.00 0.00 0.00 19 1005.0
20260504185503 82 329 2.0 8.0 0.00 0.00 0.00 19 1005.1
20260504185005 83 336 2.0 8.0 0.00 0.00 0.00 19 1005.1
20260504184503 83 105 1.0 8.0 0.00 0.00 0.00 19 1005.0
20260504184003 83 162 2.0 8.0 0.00 0.00 0.00 19 1005.2
20260504183505 82 165 2.0 6.0 0.00 0.00 0.00 21 1005.2
20260504183003 82 136 2.0 6.0 0.00 0.00 0.00 20 1005.2
20260504182503 81 354 2.0 7.0 0.00 0.00 0.00 22 1005.5
20260504182003 80 342 2.0 7.0 0.00 0.00 0.00 21 1005.5
20260504181503 79 346 2.0 9.0 0.00 0.00 0.00 22 1005.6
20260504181003 79 353 2.0 9.0 0.00 0.00 0.00 21 1005.6
20260504180504 79 43 1.0 3.0 0.00 0.00 0.00 22 1005.8
20260504180003 78 49 1.0 4.0 0.00 0.00 0.00 23 1005.7
20260504175503 78 28 1.0 4.0 0.00 0.00 0.00 25 1005.8
20260504175003 78 13 1.0 3.0 0.00 0.00 0.00 24 1005.9
20260504174503 78 8 1.0 3.0 0.00 0.00 0.00 25 1006.0
20260504174003 78 45 1.0 4.0 0.00 0.00 0.00 25 1006.0
20260504173503 78 36 1.0 4.0 0.00 0.00 0.00 24 1006.1
20260504173003 78 29 1.0 4.0 0.00 0.00 0.00 25 1006.0
20260504172503 79 35 2.0 4.0 0.00 0.00 0.00 24 1006.1
20260504172003 78 5 2.0 8.0 0.00 0.00 0.00 25 1006.2
20260504171503 78 358 2.0 8.0 0.00 0.00 0.00 23 1006.2
20260504171005 78 360 2.0 9.0 0.00 0.00 0.00 23 1006.2
20260504170503 77 2 2.0 9.0 0.00 0.00 0.00 25 1006.2
20260504151003 70 309 6.0 11.0 0.00 0.00 0.00 31 1006.7
20260504150504 69 308 6.0 12.0 0.00 0.00 0.00 33 1006.7
20260504141003 60 326 4.0 8.0 0.00 0.00 0.00 49 1007.0
20260504140505 59 318 3.0 6.0 0.00 0.00 0.00 50 1006.9
20260504130503 48 298 2.0 6.0 0.00 0.00 0.00 68 1006.8
20260504110503 41 0 0.0 0.0 0.00 0.00 0.00 71 1006.1
20260504100503 42 215 0.0 3.0 0.00 0.00 0.00 70 1006.6
20260504082004 46 211 0.0 2.0 0.00 0.00 0.00 64 1007.2
20260504081503 46 211 0.0 2.0 0.00 0.00 0.00 63 1007.3
20260504081003 47 211 0.0 1.0 0.00 0.00 0.00 63 1007.5
20260504080505 47 0 0.0 0.0 0.00 0.00 0.00 62 1007.6
20260504050503 55 0 0.0 0.0 0.00 0.00 0.00 50 1008.4
20260504050004 55 0 0.0 0.0 0.00 0.00 0.00 50 1008.5
20260504045503 56 0 0.0 0.0 0.00 0.00 0.00 49 1008.6
20260504045005 56 0 0.0 0.0 0.00 0.00 0.00 49 1008.7
20260504044504 56 0 0.0 0.0 0.00 0.00 0.00 49 1008.6
20260504044003 56 0 0.0 0.0 0.00 0.00 0.00 49 1008.7
20260504043503 56 0 0.0 0.0 0.00 0.00 0.00 48 1008.7
20260504043003 57 0 0.0 0.0 0.00 0.00 0.00 48 1008.7
20260504042503 57 0 0.0 0.0 0.00 0.00 0.00 47 1008.8
20260504042003 57 0 0.0 0.0 0.00 0.00 0.00 47 1008.9
20260504041504 57 0 0.0 0.0 0.00 0.00 0.00 46 1009.0
20260504041003 57 0 0.0 0.0 0.00 0.00 0.00 46 1008.9
20260504040503 58 0 0.0 0.0 0.00 0.00 0.00 45 1008.9
20260504040005 58 0 0.0 0.0 0.00 0.00 0.00 45 1009.0
20260504035503 58 0 0.0 0.0 0.00 0.00 0.00 45 1009.1
20260504035003 58 0 0.0 0.0 0.00 0.00 0.00 44 1009.0
20260504034503 58 0 0.0 0.0 0.00 0.00 0.00 44 1009.1
20260504034005 58 0 0.0 0.0 0.00 0.00 0.00 43 1009.1
20260504033503 59 0 0.0 0.0 0.00 0.00 0.00 43 1009.1
20260504033003 59 0 0.0 0.0 0.00 0.00 0.00 42 1009.1
20260504032503 59 0 0.0 0.0 0.00 0.00 0.00 41 1009.1
20260504032003 60 0 0.0 0.0 0.00 0.00 0.00 40 1009.1
20260504031503 60 0 0.0 0.0 0.00 0.00 0.00 40 1009.1